This is the latest recevied weather packets stored in our database for station/object W2SRH. If no packets are shown the sender has not sent any weather packets the latest 10 day(s).
| Time | Temp. | Humidity | Pressure | Rain* | Wind** | Luminosity | Snow |
|---|---|---|---|---|---|---|---|
| 1777822743 | 10.56° C | 37% | 1005.2 hPa | 0 mm | 3.13 m/s, 298° | - | - |
| 1777822143 | 10.56° C | 39% | 1005.2 hPa | 0 mm | 2.68 m/s, 308° | - | - |
| 1777821544 | 10° C | 40% | 1005.4 hPa | 0 mm | 2.24 m/s, 317° | - | - |
| 1777820944 | 10.56° C | 38% | 1005.2 hPa | 0 mm | 3.13 m/s, 320° | - | - |
| 1777820344 | 10.56° C | 38% | 1005.1 hPa | 0 mm | 2.68 m/s, 333° | - | - |
| 1777819744 | 10.56° C | 40% | 1005.4 hPa | 0 mm | 2.24 m/s, 327° | - | - |
| 1777819144 | 10.56° C | 40% | 1005.3 hPa | 0 mm | 1.34 m/s, 10° | - | - |
| 1777818545 | 10° C | 41% | 1005.4 hPa | 0 mm | 3.13 m/s, 310° | - | - |
| 1777817944 | 9.44° C | 42% | 1005.3 hPa | 0 mm | 1.79 m/s, 320° | - | - |
| 1777817344 | 9.44° C | 42% | 1005.2 hPa | 0 mm | 1.79 m/s, 349° | - | - |
| 1777816744 | 8.89° C | 42% | 1005.2 hPa | 0 mm | 4.02 m/s, 309° | - | - |
| 1777816144 | 8.33° C | 46% | 1005.2 hPa | 0 mm | 2.24 m/s, 300° | - | - |
| 1777815543 | 8.89° C | 45% | 1005.2 hPa | 0 mm | 2.24 m/s, 317° | - | - |
| 1777814944 | 8.89° C | 45% | 1005.2 hPa | 0 mm | 1.79 m/s, 302° | - | - |
| 1777814344 | 8.89° C | 46% | 1005.1 hPa | 0 mm | 2.68 m/s, 315° | - | - |
| 1777813743 | 8.33° C | 48% | 1005.1 hPa | 0 mm | 1.79 m/s, 308° | - | - |
| 1777813144 | 7.78° C | 49% | 1005.1 hPa | 0 mm | 1.79 m/s, 330° | - | - |
| 1777812544 | 7.78° C | 50% | 1005.1 hPa | 0 mm | 1.79 m/s, 300° | - | - |
| 1777811943 | 7.78° C | 50% | 1005 hPa | 0 mm | 3.58 m/s, 283° | - | - |
| 1777811343 | 7.78° C | 51% | 1004.9 hPa | 0 mm | 2.24 m/s, 321° | - | - |
| 1777810744 | 7.78° C | 52% | 1004.9 hPa | 0 mm | 3.13 m/s, 316° | - | - |
| 1777810144 | 7.22° C | 52% | 1004.9 hPa | 0 mm | 1.79 m/s, 307° | - | - |
| 1777809544 | 7.22° C | 52% | 1004.8 hPa | 0 mm | 1.34 m/s, 321° | - | - |
| 1777808944 | 7.22° C | 53% | 1004.9 hPa | 0 mm | 0.89 m/s, 309° | - | - |
| 1777808344 | 7.22° C | 53% | 1004.6 hPa | 0 mm | 0.89 m/s, 323° | - | - |
* Rain latest hour (hover to see other rain measurements)
** Current wind speed in m/s (hover to see current wind gust speed)